Location: Dehesa de la Cepeda
(40.6574°N, 4.3013°W)
Time: 20:47:03
(UTC+00:00)

Vanguard 2 Rocket - Pass Details

Date: 05 August 2021
Orbit: 556 x 3324 km, 32.9° (Epoch: 19 September)

Event Time Altitude Azimuth Distance (km) Brightness Sun altitude
Rises 04:01:10 0° 205° (SSW) 4,446 - -13.4°
Exits shadow 04:04:18 - 192° (SSW) 3,524 9.5 -12.9°
Reaches altitude 10° 04:08:31 10° 162° (SSE) 2,645 9.1 -12.3°
Maximum altitude 04:08:42 10° 160° (SSE) 2,624 9.1 -12.3°
Drops below altitude 10° 04:08:52 10° 159° (SSE) 2,608 9.1 -12.2°
Sets 04:14:15 0° 109° (ESE) 3,033 10.2 -11.4°
